Flag for Macedonia, Republic of Weather past 2 weeks in Skopje, Macedonia, Republic of

Now
75 °F

Passing clouds.


Feels Like: 78 °F
Forecast: 61 / 92 °F
Wind: 2 mph from Southeast

Location: Skopje-Petrovec

Current Time: Aug 23, 2014 at 10:26:05 PM

Latest Report: Aug 23, 2014 at 10:00 PM


Visibility: N/A

Pressure: 29.89 "Hg

Humidity: 57%

Dew point: 59 °F

Location of SkopjeLocation

Historic Weather in Skopje — Graph

°F

Skopje temperature yesterday

Maximum temperature yesterday: 90 °F (at 4:00 PM)
Minimum temperature yesterday: 61 °F (at 4:30 AM)
Average temperature yesterday: 74 °F

Past Weeks' High & Low Weather Summary

 TemperatureHumidityPressure
High97 °F (Aug 13, 3:00 PM)100% (Aug 8, 11:00 PM)30.09 "Hg (Aug 8, 11:00 PM)
Low52 °F (Aug 19, 5:00 AM)17% (Aug 18, 5:00 PM)29.77 "Hg (Aug 14, 4:30 PM)
Average76 °F59%29.96 "Hg
* Reported Aug 8 9:00 PM — Aug 23 9:00 PM, Skopje, Weather by CustomWeather, © 2014

Note: Actual official high and low records may vary slightly from our data, if they occured in-between our weather recording intervals... More about our weather records

Advertising

Skopje weather history for previous 24 hours

 ConditionsComfort  
Time TempWeatherWind HumidityBarometerVisibility
9:00 PM
Aug 23
77 °FPassing clouds.No wind61%29.89 "HgN/A
8:00 PM82 °FPassing clouds.No wind45%29.86 "HgN/A
7:30 PM86 °FPassing clouds.3 mph38%29.86 "HgN/A
7:00 PM90 °FPassing clouds.2 mph33%29.86 "HgN/A
6:30 PM90 °FPassing clouds.2 mph33%29.86 "HgN/A
6:00 PM91 °FPassing clouds.5 mph30%29.86 "HgN/A
5:00 PM93 °FPassing clouds.1 mph28%29.89 "HgN/A
4:30 PM93 °FPassing clouds.8 mph30%29.89 "HgN/A
4:00 PM93 °FPassing clouds.5 mph30%29.89 "HgN/A
3:30 PM93 °FPassing clouds.2 mph30%29.89 "HgN/A
3:00 PM93 °FPassing clouds.2 mph28%29.92 "HgN/A
2:30 PM93 °FPassing clouds.2 mph28%29.92 "HgN/A
2:00 PM91 °FPassing clouds.2 mph32%29.92 "HgN/A
1:30 PM90 °FPassing clouds.5 mph33%29.95 "HgN/A
1:00 PM88 °FPassing clouds.3 mph40%29.95 "HgN/A
12:30 PM88 °FPassing clouds.2 mph43%29.98 "HgN/A
12:00 PM86 °FPassing clouds.2 mph49%29.98 "HgN/A
11:30 AM84 °FSunny.2 mph48%29.98 "Hg10 mi
11:00 AM82 °FSunny.3 mph51%30.01 "Hg10 mi
10:30 AM81 °FSunny.1 mph54%30.01 "Hg10 mi
10:00 AM79 °FSunny.1 mph58%30.01 "Hg10 mi
9:30 AM77 °FSunny.1 mph61%30.01 "Hg10 mi
9:00 AM75 °FSunny.1 mph65%30.01 "Hg10 mi
8:30 AM73 °FSunny.No wind69%30.04 "Hg10 mi
8:00 AM70 °FSunny.1 mph78%30.04 "Hg10 mi
7:30 AM68 °FSunny.No wind83%30.04 "Hg10 mi
7:00 AM64 °FSunny.No wind94%30.01 "Hg10 mi
6:00 AM64 °FPassing clouds.No wind88%30.01 "HgN/A
5:00 AM64 °FPassing clouds.No wind88%30.01 "HgN/A
3:30 AM66 °FPassing clouds.No wind88%30.01 "HgN/A
2:30 AM66 °FPassing clouds.No wind88%30.01 "HgN/A
2:00 AM70 °FPassing clouds.No wind78%29.98 "HgN/A
1:30 AM70 °FPassing clouds.5 mph78%29.98 "HgN/A
1:00 AM68 °FPassing clouds.2 mph88%29.98 "HgN/A
12:30 AM70 °FPassing clouds.No wind83%29.98 "HgN/A
12:00 AM72 °FPassing clouds.No wind78%29.98 "HgN/A
11:30 PM
Aug 22
72 °FPassing clouds.No wind78%29.98 "HgN/A
11:00 PM72 °FPassing clouds.No wind78%29.98 "HgN/A
10:30 PM73 °FPassing clouds.No wind74%29.98 "HgN/A
10:00 PM75 °FPassing clouds.No wind69%29.98 "HgN/A
Weather by CustomWeather, © 2014

See weather overviewHow to use our weather pages